Location: Gilevgi
(36.8751°N, 30.0581°E)
Time: 03:13:46
(UTC+00:00)

Cosmos 1655 Rocket - Visible Passes

Search period start: 17 March 2026 00:00
Search period end: 27 March 2026 00:00
Orbit: 971 x 1004 km, 82.9° (Epoch: 16 March)

Date Brightness Start Highest point End Pass type
(mag) Time Alt. Az. Time Alt. Az. Time Alt. Az.
17 Mar 4.3 17:15:08 10° SSE 17:21:09 47° E 17:27:13 10° NNE visible
17 Mar 6.1 19:01:57 10° SW 19:06:59 24° WNW 19:12:04 10° NNW visible
18 Mar 4.0 17:43:40 10° S 17:50:02 89° W 17:56:28 10° N visible
18 Mar 6.9 19:34:20 10° W 19:36:32 12° WNW 19:38:46 10° NW visible
19 Mar 5.0 16:28:56 10° SE 16:33:53 24° E 16:38:52 10° NNE visible
19 Mar 5.1 18:13:04 10° SSW 18:19:07 46° W 18:25:15 10° N visible
20 Mar 6.9 03:28:54 10° NNE 03:33:13 19° ENE 03:37:30 10° ESE visible
20 Mar 4.2 16:56:31 10° SSE 17:02:34 48° E 17:08:41 10° NNE visible
20 Mar 6.2 18:43:29 10° SW 18:48:27 23° WNW 18:53:26 10° NNW visible
21 Mar 4.1 17:25:05 10° S 17:31:28 86° W 17:37:54 10° N visible
21 Mar 7.0 19:16:09 10° W 19:18:01 11° WNW 19:19:53 10° NW visible
22 Mar 5.2 17:54:32 10° SSW 18:00:34 44° WNW 18:06:40 10° N visible
23 Mar 6.9 03:10:14 10° NNE 03:14:40 20° ENE 03:19:03 10° ESE visible
23 Mar 4.2 16:37:54 10° SSE 16:44:00 50° E 16:50:09 10° NNE visible
23 Mar 6.4 18:25:03 10° WSW 18:29:55 23° WNW 18:34:48 10° NNW visible
24 Mar 4.2 17:06:32 10° S 17:12:55 83° W 17:19:21 10° N visible
24 Mar 7.2 18:58:04 10° W 18:59:30 11° WNW 19:00:55 10° NW visible
25 Mar 5.4 17:36:02 10° SSW 17:42:02 42° WNW 17:48:04 10° N visible
26 Mar 6.9 02:51:35 10° NNE 02:56:08 20° ENE 03:00:36 10° ESE visible
26 Mar 6.5 18:06:36 10° WSW 18:11:22 22° WNW 18:16:10 10° NNW visible
